Flag for U.S.A. Weather past 2 weeks in Everett, Washington, U.S.A.

Now
51 °F

More clouds than sun.


Feels Like: 48 °F
Forecast: 47 / 55 °F
Wind: 9 mph from Southeast

Location: Snohomish County Airport


UV Index: 0 (Low)

Visibility: 10 mi


Pressure: 29.80 "Hg

Humidity: 66%

Dew point: 40 °F

Location of EverettLocation

Historic Weather in Everett

°F

Everett temperature yesterday

Maximum temperature yesterday: 53 °F (at 2:53 PM)
Minimum temperature yesterday: 42 °F (at 3:53 AM)
Average temperature yesterday: 46 °F

Past Weeks' High & Low Weather Summary

 TemperatureHumidityPressure
High64 °F (Apr 13, 2:53 PM)97% (Apr 17, 4:53 AM)30.33 "Hg (Apr 17, 4:53 AM)
Low40 °F (Apr 13, 6:53 AM)24% (Apr 13, 5:53 PM)29.74 "Hg (Apr 17, 6:53 PM)
Average49 °F72%30.07 "Hg
* Reported Apr 8 5:53 PM — Apr 23 5:53 PM, Everett, Weather by CustomWeather, © 2014

Note: Actual official high and low records may vary slightly from our data, if they occured in-between our weather recording intervals... More about our weather records

Advertising

Historic Weather Conditions — Data for Previous 24 hours

 ConditionsComfort  
Time TempWeatherWind HumidityBarometerVisibility
5:53 PM
Apr 23
51 °FMore clouds than sun.9 mph66%29.80 "Hg10 mi
4:53 PM51 °FCloudy.14 mph69%29.82 "Hg10 mi
3:53 PM51 °FMostly cloudy.14 mph66%29.85 "Hg10 mi
2:53 PM52 °FScattered clouds.13 mph61%29.87 "Hg10 mi
1:53 PM52 °FBroken clouds.14 mph61%29.88 "Hg10 mi
12:53 PM52 °FBroken clouds.21 mph64%29.88 "Hg10 mi
11:53 AM51 °FMostly cloudy.15 mph66%29.89 "Hg10 mi
10:53 AM48 °FOvercast.13 mph71%29.89 "Hg10 mi
9:53 AM47 °FOvercast.10 mph71%29.89 "Hg10 mi
8:53 AM45 °FCloudy.14 mph80%29.90 "Hg10 mi
7:53 AM44 °FCloudy.13 mph85%29.89 "Hg10 mi
6:53 AM43 °FOvercast.13 mph86%29.89 "Hg10 mi
5:53 AM43 °FMostly cloudy.10 mph89%29.88 "Hg10 mi
4:53 AM43 °FOvercast.10 mph89%29.87 "Hg10 mi
3:53 AM44 °FLow clouds.13 mph85%29.86 "Hg10 mi
2:53 AM44 °FOvercast.12 mph89%29.86 "Hg10 mi
1:53 AM44 °FMostly cloudy.14 mph89%29.86 "Hg10 mi
12:53 AM44 °FMostly cloudy.10 mph89%29.87 "Hg10 mi
11:53 PM
Apr 22
44 °FLight rain. Mostly cloudy.18 mph89%29.87 "Hg10 mi
10:53 PM44 °FLight rain. Mostly cloudy.16 mph89%29.86 "Hg10 mi
9:53 PM44 °FLight rain. Mostly cloudy.15 mph89%29.87 "Hg10 mi
8:53 PM45 °FLight rain. Overcast.14 mph86%29.88 "Hg10 mi
7:53 PM47 °FLight rain. Cloudy.17 mph77%29.87 "Hg10 mi
Weather by CustomWeather, © 2014

See weather overview